Regional Weather Roundup
Issued by NWS

Home | Current Version | Previous Version | Text Only | Print | Product List | Glossary On
Versions: 1 2 3 4 5 6 7 8 9 10 11 12 13 14 15 16 17 18 19 20 21 22 23 24 25 26 27 28 29 30 31 32 33 34 35 36 37 38 39 40 41 42 43 44 45 46 47 48 49 50
871
ASUS43 KLMK 262302
RWRKY
KENTUCKY REGIONAL WEATHER ROUNDUP
NATIONAL WEATHER SERVICE LOUISVILLE KY
700 PM EDT FRI MAY 26 2017

NOTE "FAIR" INDICATES FEW OR NO CLOUDS BELOW 12,000 FEET
WITH NO SIGNIFICANT WEATHER AND/OR OBSTRUCTIONS TO VISIBILITY.

KYZ001>023-026-027-061>063-070>075-270000-
WESTERN AND SOUTH CENTRAL KENTUCKY

CITY           SKY/WX    TMP DP  RH WIND       PRES   REMARKS
PADUCAH        CLOUDY    78  63  59 SW17G26   29.82R
HENDERSON      CLOUDY    81  59  47 SW8       29.80R
OWENSBORO      CLOUDY    81  62  52 SW12      29.81R
HOPKINSVILLE   MOSUNNY   83  60  45 S8        29.83S
BOWLING GREEN  SUNNY     84  60  44 SW15      29.84F
GLASGOW        NOT AVBL
$$

KYZ024-025-028>034-038-045-046-053-270000-
NORTH CENTRAL KENTUCKY

CITY           SKY/WX    TMP DP  RH WIND       PRES   REMARKS
LOUISVILLE/SDF MOSUNNY   82  60  47 S13G22    29.83S
LOUISVILLE/LOU PTSUNNY   81  65  58 S12G18    29.83F
FORT KNOX      SUNNY     79  62  56 S12       29.83S
$$

KYZ035>037-039>044-047>052-055>060-089>105-270000-
NORTHEAST KENTUCKY

CITY           SKY/WX    TMP DP  RH WIND       PRES   REMARKS
LEXINGTON      SUNNY     78  62  57 S10       29.89F
COVINGTON      MOSUNNY   76  61  59 S9        29.86F
FRANKFORT      SUNNY     79  61  53 S9        29.86S
$$

KYZ054-064>069-076>088-106>120-270000-
SOUTHEAST KENTUCKY

CITY           SKY/WX    TMP DP  RH WIND       PRES   REMARKS
JACKSON        SUNNY     77  58  51 VRB3      29.94S
LONDON         SUNNY     77  58  51 S7        29.93F
SOMERSET       MOSUNNY   77  59  53 S3        29.92S
MIDDLESBORO    SUNNY     76  59  55 S5        29.95S
MONTICELLO     PTCLDY    79  63  57 W16       29.92S
$$





USA.gov is the U.S. government's official web portal to all federal, state and local government web resources and services.